"Pseudo-MPEC" for P11bVrG
Created 2021 Jan 16 15:07:21 UT using Find_Orb
Click here for an explanation of pseudo-MPECs
Astrometry: P11bVrG C2019 05 27stp],_KTE^ZdAr?DuGQheqWscV6w3cq)WBK2h%JHiktDds1oaP@r
F52 P11bVrG C2019 05 27I)O9Zb#QE#/hOu0TE2xj`BT$;?MVpGNsQWgesj=?mavUq+T])DC%
F52 P11bVrG C2019 05 27RGtqN*AuXo6\l/Lc(sC
Astrometryipx:!Rw^P@=(A7yoAAkS6KC
F52 P11bVrG C2019 05 27L=-x5qIYAGsvSqZ)kwe3he(c`MqPy:!Tw7KJGCCUn$9`U$sxCU;)
F52 P11bVrG C2019 06 30)23\'iR\C)sI*wp,A9aiqTOMY%X@`;-MQhq)J:3x=qu3#pM`xsiK
F51 P11bVrG C2019 06 30,F*.XKHM2P$TGa$;NVYE,lHsgr:`wF
redacted;,(.-1k?aoM.0+
F51 P11bVrG C2019 06 30I_b\*nO-JNAth[rhgTv+a-PZny-V/8ZHT-HE:MHBHB0)nxJHN/c\
F51 P11bVrG C2019 06 30_C*^*;mCuQkIT7='9_O5I2^!\`OkJ1PGp4R1[O`QQTZBKa[0jq3U
F51 P11bVrG C2021 01 124^;
clickd)?OYgyG?0]nphNC/DnJY;Qlq`'
here0UE9uNMNt58W)
F51 P11bVrG C2021 01 12/FW1C@/kkiJ,t=WZxgjw[?%.[S(pF:S/:dt7
for+)(vsS\mJm(5L
F51 P11bVrG C2021 01 12ypk$$2`PXT)AHG;_RDh(qu?E2!GGMqrXuxj5N
explanationj1C8
F51 P11bVrG ^C2021 01 15.38204408 07 13.024+40 20 55.86 ~1FDq 21.90GVNEOCP568 P11bVrG ^C2021 01 15.38326908 07 12.902+40 20 57.13 ~1FDq 21.92GVNEOCP568 P11bVrG ^C2021 01 15.38448008 07 12.788+40 20 58.33 ~1FDq 21.91GVNEOCP568 P11bVrG KC2021 01 16.20294608 05 55.64 +40 34 30.9 ~1G5M 22.19GVNEOCPV06 P11bVrG KC2021 01 16.20770008 05 55.14 +40 34 35.5 ~1G5M 21.96GVNEOCPV06 P11bVrG KC2021 01 16.21245308 05 54.72 +40 34 40.6 ~1G5M 21.49GVNEOCPV06 P11bVrG KC2021 01 16.21720508 05 54.25 +40 34 45.4 ~1G5M 22.11GVNEOCPV06 Station data: (568) Mauna Kea (N19.826116 W155.472200) US/Hawaii. (F51) Pan-STARRS 1, Haleakala (N20.707235 W156.255910) US/Hawaii. Observers N. Primak, A. Schultz, S. Watters, J. Thiel, T. Goggia. Measurer PS1 Science Consortium. 1.8-m Ritchey-Chrétien + CCD. (F52) Pan-STARRS 2, Haleakala (N20.707384 W156.255910) US/Hawaii. 1.8-m Ritchey-Chrétien + CCD. (V06) Catalina Sky Survey-Kuiper (N32.416847 W110.732550) US/Arizona. Observers T. A. Pruyne, B. M. Africano, E. J. Christensen, G. A. Farneth, D. C. Fuls, A. R. Gibbs, A. D. Grauer, H. Gröller, J. A. Johnson, R. A. Kowalski, S. M. Larson, G. J. Leonard, D. Rankin, R. L. Seaman, F. C. Shelly. 1.55-m reflector + CCD. Orbital elements: P11bVrG Perihelion 2019 Dec 1.161459 +/- 0.0031956 TT = 3:52:30 (JD 2458818.661459) Epoch 2021 Jan 16.0 TT = JDT 2459230.5 Earth MOID: 0.7188 AutoNEOCP M 153.74984705 +/- 0.0013514 (J2000 ecliptic) n 0.37332554 +/- 2.94359e-6 Peri. 227.62615 +/- 0.0009964 a 1.91019445 +/- 1.00408e-5 Node 91.03020 +/- 0.0001581 e 0.1133718 +/- 1.1176e-5 Incl. 24.61487 +/- 0.0001380 P 2.64/964.29d H 19.7 G 0.15 U 4.2 q 1.69363221 +/- 1.25933e-5 Q 2.12675668 +/- 3.24559e-5 From 18 observations 2019 May 27-2021 Jan. 16; mean residual 0".11
Residuals in arcseconds: 190527 F52 .13+ .06- 190630 F51 .13- .15- 210115 568 .02- .07- 190527 F52 .00 .03+ 190630 F51 .20+ .07+ 210115 568 .03+ .10- 190527 F52 .19- .06+ 210112 F51 .02+ .11+ 210116 V06 .09+ .03- 190527 F52 .01+ .03- 210112 F51 .03- .04+ 210116 V06 .34- .20- 190630 F51 .00 .02+ 210112 F51 .01- .06+ 210116 V06 .16+ .13+ 190630 F51 .00 .05+ 210115 568 .01+ .09- 210116 V06 .08+ .17+ Ephemerides (geocentric): Date (UTC) HH RA Dec delta r elong mag " sig PA ---- -- -- -- ------------- ----------- ------ ------ ----- --- ---- --- 2021 01 16 15 08 05 15.178 +40 41 25.03 1.1574 2.1089 160.0 22.3 .033 176 2021 01 16 16 08 05 11.216 +40 42 05.67 1.1574 2.1089 160.0 22.3 .034 176 2021 01 16 17 08 05 07.252 +40 42 46.27 1.1575 2.1089 160.0 22.3 .035 176 2021 01 16 18 08 05 03.287 +40 43 26.83 1.1576 2.1090 160.0 22.3 .035 175 2021 01 16 19 08 04 59.321 +40 44 07.35 1.1576 2.1090 160.0 22.3 .036 175 2021 01 16 20 08 04 55.353 +40 44 47.83 1.1577 2.1090 160.0 22.3 .037 175 2021 01 16 21 08 04 51.385 +40 45 28.26 1.1578 2.1090 159.9 22.3 .038 175 2021 01 16 22 08 04 47.415 +40 46 08.66 1.1578 2.1090 159.9 22.3 .039 175 2021 01 16 23 08 04 43.444 +40 46 49.01 1.1579 2.1091 159.9 22.3 .039 175 2021 01 17 00 08 04 39.472 +40 47 29.31 1.1579 2.1091 159.9 22.3 .040 175 2021 01 17 01 08 04 35.498 +40 48 09.58 1.1580 2.1091 159.9 22.3 .041 175 2021 01 17 02 08 04 31.524 +40 48 49.80 1.1581 2.1091 159.9 22.3 .042 175 2021 01 17 03 08 04 27.548 +40 49 29.99 1.1581 2.1091 159.9 22.3 .043 175 2021 01 17 04 08 04 23.572 +40 50 10.12 1.1582 2.1092 159.8 22.3 .043 175 2021 01 17 05 08 04 19.594 +40 50 50.22 1.1583 2.1092 159.8 22.3 .044 175 2021 01 17 06 08 04 15.615 +40 51 30.28 1.1583 2.1092 159.8 22.3 .045 175 2021 01 17 07 08 04 11.635 +40 52 10.29 1.1584 2.1092 159.8 22.3 .046 175 2021 01 17 08 08 04 07.654 +40 52 50.26 1.1585 2.1093 159.8 22.3 .047 175 2021 01 17 09 08 04 03.672 +40 53 30.18 1.1585 2.1093 159.8 22.3 .047 175 2021 01 17 10 08 03 59.689 +40 54 10.07 1.1586 2.1093 159.8 22.3 .048 175 2021 01 17 11 08 03 55.705 +40 54 49.91 1.1587 2.1093 159.7 22.3 .049 175 2021 01 17 12 08 03 51.720 +40 55 29.70 1.1588 2.1093 159.7 22.3 .050 175 2021 01 17 13 08 03 47.734 +40 56 09.46 1.1588 2.1094 159.7 22.3 .051 175 2021 01 17 14 08 03 43.747 +40 56 49.17 1.1589 2.1094 159.7 22.3 .051 175 2021 01 17 15 08 03 39.758 +40 57 28.84 1.1590 2.1094 159.7 22.3 .052 175 2021 01 17 16 08 03 35.769 +40 58 08.47 1.1590 2.1094 159.7 22.3 .053 175 2021 01 17 17 08 03 31.779 +40 58 48.05 1.1591 2.1094 159.6 22.3 .054 175 2021 01 17 18 08 03 27.788 +40 59 27.59 1.1592 2.1095 159.6 22.3 .055 175 2021 01 17 19 08 03 23.796 +41 00 07.08 1.1593 2.1095 159.6 22.3 .055 175 2021 01 17 20 08 03 19.803 +41 00 46.54 1.1593 2.1095 159.6 22.3 .056 175 2021 01 17 21 08 03 15.810 +41 01 25.95 1.1594 2.1095 159.6 22.3 .057 175 2021 01 17 22 08 03 11.815 +41 02 05.31 1.1595 2.1095 159.6 22.3 .058 175 2021 01 17 23 08 03 07.819 +41 02 44.63 1.1596 2.1096 159.5 22.3 .059 175 2021 01 18 00 08 03 03.823 +41 03 23.91 1.1596 2.1096 159.5 22.3 .059 175 2021 01 18 01 08 02 59.826 +41 04 03.15 1.1597 2.1096 159.5 22.3 .060 175 2021 01 18 02 08 02 55.827 +41 04 42.34 1.1598 2.1096 159.5 22.3 .061 175 2021 01 18 03 08 02 51.828 +41 05 21.49 1.1599 2.1096 159.5 22.3 .062 175 2021 01 18 04 08 02 47.829 +41 06 00.59 1.1600 2.1097 159.5 22.3 .063 174 2021 01 18 05 08 02 43.828 +41 06 39.65 1.1600 2.1097 159.4 22.3 .063 174 2021 01 18 06 08 02 39.826 +41 07 18.67 1.1601 2.1097 159.4 22.3 .064 174 2021 01 18 07 08 02 35.824 +41 07 57.64 1.1602 2.1097 159.4 22.3 .065 174 2021 01 18 08 08 02 31.821 +41 08 36.57 1.1603 2.1098 159.4 22.3 .066 174 2021 01 18 09 08 02 27.817 +41 09 15.46 1.1604 2.1098 159.4 22.3 .067 174 2021 01 18 10 08 02 23.813 +41 09 54.30 1.1604 2.1098 159.3 22.3 .067 174 2021 01 18 11 08 02 19.807 +41 10 33.09 1.1605 2.1098 159.3 22.3 .068 174 2021 01 18 12 08 02 15.801 +41 11 11.85 1.1606 2.1098 159.3 22.3 .069 174 2021 01 18 13 08 02 11.795 +41 11 50.55 1.1607 2.1099 159.3 22.3 .070 174 2021 01 18 14 08 02 07.787 +41 12 29.22 1.1608 2.1099 159.3 22.3 .070 174